Simultaneous Nadir Overpasses (SNOs) Predictions

Prediction of SNOs between FY3D and TERRA Satellite Orbit:

Table of predicted SNOs for the next 14.0 days since TLE Epoch: 5/4/2024
Index Date (FY3D) Time (FY3D) Lat,Lon (FY3D) SZA (FY3D ) Date (TERRA) Time (TERRA) Lat,Lon (TERRA) SZA (TERRA ) Distance(km) Time Diff (sec)
1 05/05/2024 11:03:48 75.43, 14.24 58.89 05/05/2024 11:04:09 75.46, 14.20 58.92 3.51 21
2 05/05/2024 11:54:32 -75.42,-178.39 121.14 05/05/2024 11:53:32 -75.40,-178.31 121.16 2.85 60
3 05/07/2024 22:16:47 75.50,-154.16 58.27 05/07/2024 22:17:38 75.51,-154.08 58.28 2.50 51
4 05/07/2024 23:07:30 -75.43, 13.38 121.81 05/07/2024 23:07:01 -75.45, 13.43 121.79 3.16 29
5 05/10/2024 09:29:53 75.89, 36.35 58.01 05/10/2024 09:31:01 75.83, 38.42 57.96 56.77 68
6 05/10/2024 10:20:29 -75.49,-155.02 122.40 05/10/2024 10:20:30 -75.48,-154.91 122.41 3.45 1
7 05/10/2024 11:11:06 75.06, 13.62 57.18 05/10/2024 11:09:57 75.15, 11.87 57.25 50.89 69
8 05/12/2024 21:33:27 -75.52, 36.70 122.99 05/12/2024 21:33:59 -75.49, 36.69 123.03 3.91 32
9 05/12/2024 22:24:11 75.43,-155.68 56.91 05/12/2024 22:23:20 75.45,-155.74 56.93 3.15 51
10 05/15/2024 08:46:25 -75.55,-131.60 123.55 05/15/2024 08:47:26 -75.56,-131.49 123.54 3.04 61
11 05/15/2024 09:37:09 75.47, 36.00 56.36 05/15/2024 09:36:48 75.47, 35.91 56.36 2.56 21
12 05/17/2024 20:50:07 75.51,-132.34 55.85 05/17/2024 20:50:15 75.52,-132.37 55.85 0.88 8



Historial Predications of SNOs between FY3D and TERRA
